Voltar ao catálogo

FENGYUN 1C DEB

AtivoPO
NORAD 29832·DEBRIS·🇨🇳 China

Lançado May 10, 1999 de Taiyuan Satellite Launch Center

Loading…

Próximas Passagens (próximas 24 horas)

TLE

AtualizadoSource: Space-Track

Época: Sep 14, 2026, 14:50 UTC

1 29832U 99025EA  26257.61806517  .00000825  00000-0  15329-3 0  9993
2 29832  98.8505  30.6167 0192325 161.4578 199.3755 14.57047222 42726

Acompanhe FENGYUN 1C DEB em tempo real com AllMySat

Download on the App Store